Regional Weather Roundup
Issued by NWS

Home | Current Version | Previous Version | Text Only | Print | Product List | Glossary On
Versions: 1 2 3 4 5 6 7 8 9 10 11 12 13 14 15 16 17 18 19 20 21 22 23 24 25 26 27 28 29 30 31 32 33 34 35 36 37 38 39 40 41 42 43 44 45 46 47 48 49 50
000
ASUS43 KTOP 270208
RWRKS

WEATHER ROUNDUP FOR KANSAS
NATIONAL WEATHER SERVICE GOODLAND KS
900 PM CDT MON SEP 26 2016

NOTE:  "FAIR" INDICATES FEW OR NO CLOUDS BELOW 12,000 FEET WITH NO
SIGNIFICANT WEATHER AND/OR OBSTRUCTIONS TO VISIBILITY.

KSZ001>006-013>018-027>032-041>047-270300-
NORTHWEST KANSAS

CITY           SKY/WX    TMP DP  RH WIND       PRES   REMARKS
GOODLAND       CLEAR     58  40  51 CALM      30.24R
HAYS           CLEAR     61  39  44 SE6       30.17S
HILL CITY      CLEAR     56  50  80 SW3       30.18R
RUSSELL        CLEAR     59  46  62 S7        30.16R
$$

KSZ061>065-074>080-084>089-270300-
SOUTHWEST KANSAS

CITY           SKY/WX    TMP DP  RH WIND       PRES   REMARKS
DODGE CITY     CLEAR     62  38  40 S9        30.20S
ELKHART          N/A     62  34  35 MISG        N/A
GARDEN CITY    CLEAR     61  34  36 S10       30.20S
GREAT BEND     CLEAR     61  43  51 S6        30.17S
LIBERAL        CLEAR     61  30  31 SE7       30.24S
PRATT          CLEAR     56  40  55 S7        30.21R
$$

KSZ066>073-081>083-090>101-270300-
SOUTHEAST KANSAS

CITY           SKY/WX    TMP DP  RH WIND       PRES   REMARKS
CHANUTE        CLEAR     57  52  83 CALM      30.17R
COFFEYVILLE    CLEAR     58  49  72 CALM      30.18R
HUTCHINSON     CLEAR     58  48  69 SE3       30.18S
MEDICINE LODGE   N/A     62  44  51 S7        30.21R
NEWTON         CLEAR    N/A N/A N/A S7        30.19
PARSONS        CLEAR     53  50  89 CALM      30.18S
WICHITA INTL   CLEAR     59  50  72 S6        30.19R
WICHITA JABRA  CLEAR     62  45  53 S3        30.19R
WICHITA MCCONL CLEAR     61  50  65 S3        30.19R
WINFIELD       CLEAR     59  54  83 CALM      30.21R
$$

KSZ007>012-019>026-033>040-048>060-102>105-270300-
NORTHEAST KANSAS

CITY           SKY/WX    TMP DP  RH WIND       PRES   REMARKS
CONCORDIA      CLEAR     62  44  51 S9        30.13S
EMPORIA        CLEAR     57  50  77 SW6       30.17S
LAWRENCE       CLEAR     54  53  97 CALM      30.14R
MANHATTAN      CLEAR     62  49  62 SW7       30.14S
MARYSVILLE     CLEAR     61  46  59 SW7       30.12S
OLATHE IND     CLEAR     59  48  67 SW6       30.15R
OLATHE EXE     CLEAR     60  47  61 SW3       30.14S
SALINA         CLEAR     60  49  66 S6        30.16R
TOPEKA BILLARD CLEAR     59  51  75 SW3       30.13S
TOPEKA FORBES  CLEAR     61  48  62 SW8       30.14S
$$




USA.gov is the U.S. government's official web portal to all federal, state and local government web resources and services.